Wind_Gust
7 9 7 9 6 8 9 9 11 11 10 8 8 9 8 8 8 7 7 8 7 8 9 10 10 10 11 11 11 10 10 9 10 9 8 6 5 5 8 9 10 10 13 14 13 15 13 11 11 8 9 10 10 9 8 10 9 9 10 10 9 10 12 11 12 11 12 6 6 7 9 9 7 8 10 10 9 12 13 14 14 17 17 15 15
9 8 6 7 6 7 9 8 9 10 10 9 8 9 9 8 8 7 6 7 7 8 9 10 9 10 10 11 12 11 11 10 9 9 9 8 8 7 6 8 10 9 9 12 12 14 12 12 9 10 9 10 10 11 11 11 12 11 10 11 12 12 10 14 12 11 15 7 6 5 8 5 5 4 6 8 9 8 11 12 12 14 15 13 14
8 5 6 7 7 6 7 8 9 9 9 9 9 10 9 7 7 7 8 9 9 9 9 9 9 10 10 11 11 11 11 10 10 9 9 9 7 7 8 9 11 11 10 9 9 10 11 12 12 10 10 10 11 11 11 11 11 11 11 10 11 10 10 10 11 13 13 16 7 6 8 6 7 6 5 6 8 9 10 11 13 11 12 11 13
7 5 6 7 7 6 8 9 9 8 8 9 9 10 8 7 7 8 8 8 10 9 9 9 9 9 10 10 11 11 11 11 10 9 10 9 8 5 7 8 9 9 9 7 7 7 8 9 10 11 9 11 10 10 12 12 14 14 14 13 13 11 10 11 13 13 11 11 7 8 6 5 8 6 5 6 7 7 9 9 7 9 10 11 13
6 6 5 7 8 7 9 8 9 9 9 9 9 9 7 8 8 9 9 9 8 9 9 9 9 10 11 10 10 11 11 11 11 11 10 9 9 8 7 6 6 8 7 7 8 8 8 8 8 10 11 10 8 9 9 12 12 11 13 12 13 12 10 10 12 11 10 11 11 7 4 5 5 6 6 7 7 6 6 8 9 11 10 9 9
6 5 5 6 8 7 8 7 8 9 9 9 9 9 6 6 7 8 8 8 7 8 8 9 10 10 10 9 9 10 10 11 11 12 12 11 10 10 9 8 6 11 9 7 8 7 9 8 8 9 10 12 11 10 10 11 11 12 12 12 12 10 10 9 9 8 8 9 7 11 6 7 5 5 4 6 5 6 8 8 6 7 10 9 10
6 5 4 5 5 6 7 8 9 9 9 9 8 4 5 6 7 7 6 7 7 8 8 10 10 9 9 9 10 10 10 10 11 12 12 12 11 11 11 10 9 9 9 8 7 6 7 7 7 9 11 10 11 11 12 9 11 11 11 13 11 11 12 10 10 10 10 9 6 5 7 6 5 6 4 5 5 5 6 8 8 7 5 8 10
5 3 4 6 5 6 7 7 9 9 8 8 5 4 5 6 6 7 6 7 7 6 7 8 6 7 9 9 9 9 9 10 11 12 12 12 12 11 10 10 9 8 7 7 8 7 7 8 8 9 9 9 11 11 11 14 11 11 11 10 10 11 10 9 9 9 8 8 8 7 5 6 5 5 6 6 5 6 5 5 7 8 8 7 7
5 5 6 5 5 6 7 7 8 8 9 8 4 4 5 5 6 5 5 5 6 6 6 7 8 9 9 9 10 9 9 11 10 11 11 10 10 10 10 10 9 8 8 7 9 7 6 6 6 7 7 11 11 12 12 11 14 15 12 10 9 9 9 8 9 9 8 8 7 5 6 5 5 5 8 4 6 5 5 5 5 6 6 8 8
5 6 6 6 6 6 8 8 8 8 8 5 3 3 4 5 4 5 5 6 5 7 9 7 8 9 10 11 11 11 11 9 16 16 11 9 9 8 9 8 7 7 7 7 7 7 6 7 7 13 14 13 12 12 12 12 12 12 12 13 12 12 11 10 10 10 11 11 12 10 8 6 6 6 5 6 4 4 4 5 5 6 6 7 7
6 5 7 5 5 7 7 8 8 8 6 3 2 3 4 5 5 4 5 5 8 7 8 8 8 8 10 10 11 10 9 12 16 12 13 12 10 7 7 8 8 7 6 6 7 7 5 7 8 9 10 10 4 6 7 7 8 8 7 8 8 11 11 10 12 11 13 12 9 8 8 7 7 7 6 7 5 6 5 6 6 6 5 4 7
6 6 6 5 5 7 7 8 8 7 6 5 4 3 2 4 6 4 5 5 6 6 8 7 7 8 8 8 9 10 10 13 17 18 15 12 9 9 7 8 8 7 7 7 6 7 4 5 8 9 6 6 5 6 7 8 7 5 7 6 7 10 8 9 10 10 10 9 8 8 9 9 7 5 6 5 7 6 4 6 6 6 7 6 7
6 6 6 4 5 6 8 8 9 7 5 8 6 5 5 4 4 3 6 5 3 6 6 6 7 8 9 9 10 11 10 10 13 13 14 13 10 9 7 7 6 7 7 7 8 6 5 8 9 10 11 15 11 8 5 8 7 8 9 9 9 8 7 8 8 7 9 8 8 8 7 7 7 6 5 7 6 6 4 4 6 7 6 5 8
5 6 6 6 6 6 7 8 9 8 7 8 7 7 6 5 5 5 4 4 4 4 5 5 6 7 8 9 9 8 9 12 16 15 14 12 10 6 6 6 6 7 7 8 8 8 8 7 8 9 10 11 13 13 11 7 11 12 12 12 12 14 10 10 8 8 6 7 8 9 5 4 6 5 5 4 4 5 7 7 6 6 7 9 6
5 6 7 7 6 6 7 7 8 8 7 7 7 6 6 6 6 7 6 5 6 5 6 5 6 7 7 8 8 10 10 14 16 16 15 13 12 6 4 5 8 9 10 9 9 9 9 9 8 8 8 9 13 14 11 11 12 15 13 12 11 12 13 12 11 9 8 9 9 9 7 6 6 5 6 5 6 6 5 8 8 6 5 4 4
6 5 7 8 6 5 5 6 7 7 7 6 7 6 8 6 7 6 6 6 5 4 4 5 6 6 6 7 8 10 11 14 16 16 15 13 12 9 9 11 12 12 13 12 11 9 9 9 8 8 8 8 13 14 12 10 15 16 16 14 13 12 12 8 7 9 12 11 10 9 6 6 4 6 7 7 6 5 6 5 5 5 5 6 10
7 6 7 8 6 6 5 5 6 6 6 7 8 8 8 9 10 7 7 6 7 6 6 6 6 5 6 6 8 9 10 13 17 16 15 14 8 9 9 12 13 14 13 12 12 12 11 10 9 9 9 10 13 11 11 8 13 15 14 13 10 10 10 9 9 11 13 14 13 13 12 12 12 13 13 9 7 6 5 7 6 4 5 7 7
7 6 9 8 6 6 6 5 7 8 7 7 7 8 8 8 7 7 7 6 7 10 7 8 7 6 7 8 8 8 11 12 16 17 15 15 9 8 8 11 12 13 12 13 12 14 17 21 15 11 12 11 11 12 13 8 10 10 12 12 10 10 10 9 8 11 13 14 15 15 14 13 13 14 15 15 14 9 5 5 3 6 6 5 7
7 9 10 8 5 5 6 6 5 6 6 7 6 8 9 10 9 6 6 5 7 11 8 9 8 7 7 7 12 11 10 11 14 16 15 14 11 7 7 10 13 12 11 12 11 11 12 16 20 16 13 11 13 14 14 10 9 8 10 12 11 10 7 7 8 10 10 12 12 13 15 12 13 12 13 15 15 13 12 9 7 5 6 6 6
11 9 8 6 6 5 4 5 6 5 8 8 8 7 9 10 8 6 7 5 7 8 8 8 9 7 7 8 8 9 11 11 13 15 13 13 12 9 8 10 11 10 9 11 13 11 12 12 14 13 14 14 14 15 14 13 9 8 8 10 12 10 6 8 11 11 13 14 13 12 12 11 13 13 13 14 15 14 13 12 11 8 5 5 5
10 9 7 6 6 6 6 5 7 8 6 8 7 7 8 8 8 6 6 6 8 9 9 8 10 7 7 7 8 9 10 10 12 13 13 13 12 9 10 10 9 11 12 12 11 12 12 13 12 12 13 14 14 15 14 14 10 13 11 10 8 7 5 12 14 13 14 13 13 13 12 12 13 12 13 13 14 13 13 12 13 13 11 9 9
9 7 8 8 6 6 6 6 6 8 7 5 7 6 5 7 7 6 5 5 8 9 9 10 10 8 7 7 8 8 11 13 10 11 13 14 13 10 10 9 7 11 14 11 10 11 10 10 11 11 14 15 15 15 15 14 13 16 13 7 6 8 13 11 11 12 14 13 14 15 14 14 14 14 13 13 14 13 13 13 14 15 16 14 12
9 8 7 6 7 7 6 6 8 5 6 5 3 3 5 8 8 7 6 7 9 10 11 10 11 8 7 8 7 7 8 8 10 10 12 14 14 13 10 9 8 8 12 12 10 10 9 10 12 14 16 17 17 17 16 15 13 13 13 14 14 13 10 12 12 14 14 14 15 15 14 14 14 14 14 13 13 12 12 13 13 15 16 17 17
5 6 6 6 6 7 5 5 6 6 5 8 6 4 7 6 8 9 6 9 11 11 9 11 9 8 7 8 8 8 7 8 8 11 11 13 14 14 13 11 9 9 10 11 9 10 11 10 10 13 15 17 18 19 19 16 18 16 15 15 14 11 13 13 14 14 14 15 15 15 14 13 13 13 14 12 13 12 11 12 13 13 15 15 16
8 6 7 7 4 4 4 5 6 5 6 5 6 6 5 5 10 8 8 11 11 13 9 9 10 8 7 6 7 7 8 8 7 10 11 11 13 13 12 12 11 8 12 10 10 11 10 12 14 14 15 16 17 17 16 18 20 18 18 17 14 14 14 13 13 14 17 16 14 14 14 14 13 12 10 10 9 11 13 13 11 12 11 12 14
7 7 7 5 5 4 6 4 5 6 6 6 5 4 6 6 10 7 11 10 10 12 10 9 8 7 7 6 6 6 7 6 8 9 9 9 9 12 12 12 13 13 12 12 9 13 15 15 16 16 14 14 17 16 16 18 17 19 18 16 15 15 13 14 14 16 15 14 13 14 12 11 13 12 9 10 16 17 13 14 15 18 16 14 14
9 7 7 6 3 3 5 5 4 5 5 6 6 7 5 7 7 9 10 11 10 10 8 8 8 6 7 4 5 6 7 8 8 8 10 11 11 11 12 11 9 9 12 10 10 14 16 14 13 13 13 16 16 14 14 14 18 18 16 15 15 15 14 13 13 14 14 14 13 13 11 10 8 13 16 16 17 16 13 13 14 15 14 11 13
10 9 9 6 6 6 5 5 6 7 5 5 7 8 7 6 8 7 9 12 13 9 9 8 8 8 8 5 5 7 8 8 9 10 11 10 10 8 8 10 11 10 12 10 11 11 12 9 13 13 14 16 16 15 15 15 15 14 15 14 14 14 16 16 14 14 12 11 12 11 12 12 15 13 12 15 15 15 13 15 14 13 13 11 16
9 8 6 6 8 5 6 6 7 7 6 6 4 3 5 5 6 4 6 6 7 13 12 7 7 6 10 8 9 8 8 9 7 3 5 4 6 9 11 10 10 10 9 10 13 11 12 14 13 14 14 14 14 14 13 14 14 13 13 13 13 13 13 13 15 13 11 12 14 13 13 12 13 12 12 15 16 14 13 13 14 14 12 14 16
8 9 7 7 7 6 6 7 6 7 7 9 6 6 4 3 3 6 3 5 6 6 4 8 10 8 9 5 5 8 6 2 4 7 6 6 6 5 7 8 8 12 11 13 13 14 12 12 10 11 11 11 12 12 12 11 12 13 12 9 12 13 13 13 13 11 11 13 11 13 13 12 13 13 13 13 13 14 15 12 15 13 16 16 15
10 11 7 8 9 8 8 8 6 7 6 7 7 6 4 6 6 6 5 6 6 7 7 7 7 5 5 4 2 3 4 5 7 7 7 6 6 9 12 13 14 13 12 16 13 12 12 12 10 10 10 10 11 10 10 11 10 11 11 11 11 12 11 12 11 10 12 12 13 12 12 13 13 12 14 13 12 13 13 13 12 14 15 13 14
13 13 11 9 8 6 9 10 9 8 6 6 7 8 7 4 2 3 3 3 3 6 7 7 6 6 4 3 5 5 4 5 6 6 7 9 11 11 10 10 11 12 12 14 13 10 10 11 10 10 10 10 9 8 10 10 9 10 10 12 12 10 12 12 8 11 11 12 12 12 12 12 12 11 11 12 10 12 13 15 15 14 13 12 12
13 11 11 10 9 8 9 11 10 10 9 8 7 7 9 7 8 3 3 3 5 6 5 5 5 6 5 4 3 4 4 7 8 8 9 10 10 11 12 11 10 13 15 14 12 9 10 10 10 9 10 10 9 9 8 9 10 9 10 11 11 9 9 8 7 11 10 10 10 11 10 10 10 10 9 11 13 14 13 14 13 11 11 13 13
14 13 12 12 11 9 10 12 11 12 10 11 11 10 8 9 9 9 7 2 2 2 4 6 7 6 6 6 7 6 6 6 7 7 8 10 10 11 12 11 11 9 13 14 12 10 9 10 10 9 8 9 9 9 9 8 9 10 10 9 9 9 8 6 10 10 9 9 10 9 9 9 8 11 11 10 10 10 13 12 13 15 15 14 13
12 11 12 11 11 12 12 12 13 12 10 10 11 9 10 8 8 9 10 9 9 10 6 5 5 5 7 6 6 7 6 6 7 7 8 8 9 10 11 13 11 9 10 8 11 11 11 11 10 8 10 10 9 10 10 8 9 9 10 10 8 8 8 9 9 8 9 9 9 9 8 8 8 8 9 10 11 12 10 11 10 10 10 13 12
13 12 10 12 11 10 12 12 12 14 15 15 13 13 9 9 9 9 5 7 8 8 5 8 6 6 6 8 8 8 7 6 8 7 7 7 7 9 12 8 10 9 9 7 9 8 10 11 10 9 8 8 8 8 9 10 10 10 9 10 10 9 9 9 8 8 7 8 8 7 7 8 7 7 7 9 8 8 8 8 8 8 8 8 8
14 13 11 12 12 11 11 11 12 13 10 12 11 11 10 10 9 7 8 9 8 7 9 5 5 8 5 6 7 7 8 7 7 7 7 6 5 5 9 12 12 11 10 9 8 9 9 8 10 10 9 10 9 9 9 9 10 8 8 9 9 9 9 9 8 6 9 8 7 7 7 7 6 6 8 8 6 7 8 8 8 8 8 8 6
16 16 15 13 11 11 10 11 13 10 12 13 13 13 12 12 12 13 13 13 12 10 10 9 6 8 10 11 5 6 7 5 8 8 7 6 5 6 8 9 11 13 11 9 10 10 10 8 10 10 10 9 9 8 8 9 9 11 11 9 8 9 7 9 8 7 7 8 7 7 5 5 5 6 5 7 5 6 7 6 7 9 9 9 8
14 14 15 14 11 14 13 12 10 11 11 11 13 12 13 12 11 11 11 10 11 11 11 9 10 11 12 10 7 5 7 3 4 7 8 7 5 6 9 9 9 10 10 11 10 10 11 10 10 9 10 8 9 9 10 9 8 8 9 9 8 6 7 8 8 8 7 8 6 7 5 5 4 4 4 5 4 4 5 6 6 6 9 10 10
16 14 13 13 11 13 12 12 13 12 12 13 12 13 13 12 13 14 12 11 12 12 12 12 12 13 13 8 7 8 9 9 9 9 9 10 8 8 9 10 10 11 12 11 10 12 11 11 11 11 10 9 9 9 9 10 10 9 8 9 10 9 10 9 10 10 10 9 9 8 7 7 6 5 4 4 4 3 4 6 7 7 7 9 10
17 16 10 12 13 13 11 11 12 13 12 13 14 14 14 15 14 12 12 13 12 12 12 14 15 15 12 15 10 11 11 11 11 9 10 12 10 10 10 10 12 11 11 12 13 12 12 11 11 11 10 10 9 9 10 9 9 8 9 9 8 7 8 8 8 9 8 8 10 9 9 8 8 8 6 4 5 4 4 4 6 8 8 6 7
17 15 14 14 14 13 13 13 13 13 12 12 13 14 13 13 13 12 13 13 12 12 12 13 15 14 14 17 13 13 12 10 9 9 9 9 10 11 12 12 13 13 14 14 14 14 13 12 12 11 11 11 10 9 8 8 9 9 9 9 9 9 7 9 9 10 10 10 10 10 9 9 8 6 5 6 4 3 5 6 5 5 7 8 9
17 17 17 14 15 16 17 17 14 12 12 12 13 9 12 14 14 15 14 13 13 13 13 14 14 11 13 15 15 12 11 10 7 11 10 11 11 11 12 14 14 15 15 14 14 14 14 14 13 12 13 13 12 13 13 12 11 10 10 10 10 10 10 9 8 8 8 9 10 8 7 6 6 6 5 5 4 4 4 5 6 8 7 8 7
17 17 15 15 16 16 15 14 14 15 15 15 14 14 14 13 12 11 13 13 13 13 13 14 12 12 14 14 10 11 12 12 11 12 12 12 12 12 13 13 12 11 11 12 12 12 13 12 12 11 10 11 10 9 11 11 11 11 11 10 8 8 9 7 7 10 11 12 11 9 6 6 6 5 5 5 4 5 5 5 6 7 7 8 8
17 17 16 15 15 15 16 14 15 15 14 11 11 12 12 13 13 13 13 13 13 13 13 13 11 12 12 12 12 15 15 15 14 13 13 13 14 14 12 11 11 12 12 12 12 11 12 13 12 12 10 10 9 8 8 9 8 8 7 9 10 6 3 6 6 5 7 8 10 9 7 7 6 6 6 4 3 3 5 6 6 5 9 8 9
18 17 17 17 17 16 16 16 15 15 14 14 15 14 13 13 13 12 13 13 13 13 13 13 12 12 13 14 13 13 14 14 14 15 14 12 13 13 12 12 13 12 12 13 11 10 11 13 14 12 12 11 10 10 11 10 11 11 10 10 11 9 7 7 7 8 8 7 8 9 8 8 6 5 4 4 4 3 5 6 6 7 8 9 10
17 17 18 18 19 19 18 17 15 15 14 15 14 15 15 15 15 13 12 15 15 13 13 13 12 13 13 13 13 14 14 15 15 15 16 16 15 14 13 12 11 12 11 11 11 12 10 11 11 11 11 12 13 12 12 11 11 12 12 11 11 10 9 9 10 10 10 9 8 9 8 8 5 4 5 3 5 5 5 8 8 9 10 10 11
17 17 18 18 17 17 17 16 18 14 16 16 16 16 15 15 14 14 14 14 14 13 14 13 13 13 13 14 14 14 14 15 15 15 14 14 13 13 13 14 14 14 12 10 10 11 10 10 11 12 14 13 14 14 12 12 12 12 12 12 12 12 11 9 10 10 9 9 9 9 8 6 4 5 5 6 6 6 7 10 9 9 10 11 11
17 17 17 17 17 18 18 19 17 19 20 18 16 16 15 15 15 15 15 15 15 15 15 15 14 12 12 15 15 15 14 13 14 13 12 13 13 13 14 12 10 11 12 12 10 11 11 12 13 14 14 14 13 13 13 12 13 12 12 12 12 13 14 13 10 10 8 9 8 8 8 7 7 5 5 6 8 8 9 9 8 10 10 9 11
19 18 18 18 18 19 18 18 19 19 18 17 17 17 16 15 15 15 15 14 14 14 14 13 13 14 14 14 13 14 13 13 14 14 13 12 11 10 10 11 12 13 13 12 12 12 14 15 14 15 15 14 14 14 13 13 13 13 11 12 11 13 13 12 13 13 11 8 9 8 7 7 7 7 7 7 8 8 9 10 10 10 10 12 12
18 19 18 18 19 19 18 18 18 17 17 18 18 18 17 17 17 16 15 16 17 17 15 15 15 14 14 14 13 14 15 15 14 13 11 9 10 10 12 13 14 15 14 15 15 16 14 15 16 15 14 14 14 14 13 13 13 13 11 11 13 13 14 13 13 10 11 7 8 8 8 8 6 7 8 8 8 8 11 11 11 10 10 10 12
Wind_Speed
5 6 5 6 4 6 6 6 7 6 6 5 5 6 5 5 5 4 4 4 4 5 6 6 6 6 6 6 6 6 6 5 5 5 4 1 2 2 2 1 2 5 6 7 7 5 3 3 4 4 5 6 5 4 5 5 5 4 3 4 4 4 6 6 6 5 3 2 2 2 1 0 2 3 3 3 4 5 8 7 7 8 8 7 7
6 5 4 4 4 5 6 6 6 6 7 5 5 5 4 4 5 4 4 5 4 5 6 6 5 6 5 6 7 6 6 5 5 4 5 4 5 3 2 2 2 2 2 2 2 5 5 6 4 4 5 6 6 6 6 6 6 5 4 5 5 5 5 6 6 5 7 2 2 1 2 1 2 1 1 1 2 3 5 5 5 7 6 6 6
5 3 4 5 5 4 5 5 6 6 6 6 6 5 4 4 3 4 5 5 5 5 5 5 5 5 6 6 6 6 6 5 5 4 5 5 4 4 2 4 5 2 4 4 4 4 4 5 3 3 4 4 5 6 6 6 5 4 3 2 4 4 5 4 5 6 6 5 1 1 1 1 3 2 1 1 1 3 4 5 5 5 5 5 6
4 3 4 5 5 4 5 5 6 5 5 5 6 6 4 4 4 4 4 4 5 5 5 5 5 5 5 6 6 6 6 6 5 5 5 5 4 3 2 3 2 3 3 2 3 4 4 4 5 4 3 4 4 3 4 5 6 6 7 7 6 7 5 4 4 4 4 5 2 2 0 2 2 1 1 1 1 1 2 2 3 4 5 5 6
4 4 3 5 6 5 5 5 6 6 5 5 6 5 4 5 4 5 5 5 5 5 5 5 5 6 5 6 5 6 6 6 6 6 5 5 5 4 4 3 3 3 2 1 2 2 2 2 3 5 5 4 3 4 4 7 6 5 6 6 7 7 5 5 5 3 4 4 2 1 0 1 1 1 1 2 2 2 1 1 1 2 3 4 4
4 4 3 4 5 5 5 5 5 6 6 5 5 4 4 3 4 4 4 4 5 5 5 5 5 5 5 5 5 5 5 6 6 6 6 6 5 5 5 4 3 2 2 1 1 1 3 2 3 3 5 5 4 3 5 6 6 7 7 5 5 5 6 5 4 4 3 2 3 2 1 1 1 1 1 2 2 2 3 2 1 0 1 2 3
4 3 3 4 4 4 5 5 5 6 6 5 4 2 3 4 4 4 4 4 4 4 4 4 4 5 5 5 6 6 5 5 6 7 7 7 6 6 6 5 5 4 4 3 1 0 1 3 3 3 3 3 3 4 4 5 5 6 5 6 6 4 4 5 5 5 5 5 2 1 1 1 1 1 0 1 1 1 0 3 3 1 1 1 2
2 2 3 4 3 4 5 5 6 5 5 4 2 2 2 3 4 4 4 5 4 4 4 4 4 4 5 5 5 5 5 5 6 7 6 6 6 6 6 5 5 4 4 4 3 2 2 2 3 3 3 3 3 2 2 4 4 5 3 4 4 5 5 3 2 3 3 4 3 2 1 1 1 1 2 2 2 2 1 1 1 2 3 2 2
2 3 4 3 3 4 5 5 5 5 5 2 2 2 2 3 3 4 3 3 3 3 3 4 5 5 5 6 6 5 5 5 5 6 6 6 5 5 5 5 5 4 4 4 3 1 1 2 3 3 3 5 6 5 4 3 4 4 5 4 4 3 3 3 4 4 3 3 3 2 2 1 1 1 1 0 2 2 1 1 1 1 1 2 2
3 4 4 4 4 4 5 4 5 5 4 1 1 2 2 3 2 2 3 3 3 3 3 4 5 5 6 6 6 6 6 4 10 11 7 4 4 4 4 4 3 4 4 4 4 3 2 2 2 3 2 2 5 7 7 7 4 3 1 2 4 4 3 3 3 3 4 3 3 4 4 2 2 2 1 1 1 1 1 1 1 1 2 1 1
4 3 4 3 4 5 5 5 4 4 3 1 1 1 2 3 3 2 3 3 3 4 4 5 4 4 5 6 6 5 4 5 13 10 10 9 5 3 3 4 4 3 3 2 3 4 2 1 1 1 1 1 0 2 5 6 7 6 2 1 4 4 5 4 4 5 5 6 4 3 3 3 2 1 2 1 1 1 1 1 2 2 2 2 2
4 4 4 3 3 5 5 5 5 4 3 3 3 2 1 3 4 2 3 3 2 2 3 3 3 4 4 4 5 5 5 10 15 15 13 10 7 4 3 2 3 3 3 3 3 3 2 2 3 3 3 1 1 2 2 3 3 3 5 5 2 0 1 4 5 4 6 5 4 4 4 4 3 2 2 1 1 1 1 1 1 2 2 2 2
4 3 4 3 3 4 5 6 6 4 3 3 3 3 2 2 3 1 3 3 1 2 3 4 4 4 5 5 5 5 4 7 11 11 12 11 8 4 2 3 3 4 4 4 4 3 3 3 3 4 4 6 4 2 0 3 4 6 8 8 8 8 6 6 2 4 5 4 4 4 4 3 3 2 1 0 1 1 1 1 2 2 2 2 3
3 4 4 3 2 3 5 5 6 5 4 4 3 4 2 3 3 3 3 2 2 1 2 3 4 4 5 5 5 5 5 9 13 12 11 10 8 4 2 2 2 3 3 4 4 4 4 3 3 4 5 5 4 4 0 3 4 6 5 5 4 7 7 7 6 7 4 2 5 5 1 1 3 2 1 1 1 2 2 3 2 2 3 3 2
3 4 4 3 2 3 5 5 5 5 5 4 4 4 4 4 4 4 3 3 3 2 2 2 3 4 4 4 5 6 5 11 12 13 12 10 9 3 1 2 4 5 5 5 5 4 4 4 4 4 4 5 5 6 2 5 6 7 7 6 6 6 6 6 6 4 4 5 5 5 4 3 3 2 1 1 1 2 2 2 1 1 1 1 1
4 3 5 4 3 3 4 5 5 4 4 4 4 4 3 3 4 3 3 3 2 2 2 3 3 3 3 4 5 7 6 11 12 13 12 11 8 4 5 6 6 6 7 7 6 5 4 4 3 4 4 4 8 10 5 5 7 7 7 6 6 5 6 4 4 6 7 6 6 5 3 2 3 3 2 1 1 1 1 2 1 2 2 2 2
4 4 4 4 3 4 4 3 4 3 3 3 4 4 4 5 4 2 3 3 2 2 3 3 3 2 4 4 5 6 6 10 13 13 13 12 6 4 5 6 6 6 6 6 6 6 6 5 5 4 4 5 9 8 7 5 7 8 7 7 5 5 5 4 7 9 11 13 12 11 11 11 11 12 11 8 4 3 1 2 1 1 2 3 1
4 4 5 5 4 4 4 4 5 3 3 4 4 4 4 3 3 2 3 3 3 3 3 3 3 3 4 5 5 5 6 8 13 13 12 12 7 4 3 4 6 5 6 6 6 6 9 15 9 5 5 5 8 8 7 4 6 6 7 7 6 5 4 3 4 6 11 13 13 13 12 11 11 12 12 13 13 7 3 1 0 2 3 2 3
4 5 6 5 3 3 3 3 4 4 4 4 3 4 4 4 4 3 2 1 2 4 4 4 4 4 4 4 7 7 6 7 11 13 12 11 7 4 3 5 5 5 4 5 5 5 6 9 13 9 7 6 10 10 9 5 5 5 6 7 6 5 1 0 4 6 5 7 7 8 8 9 8 7 8 12 13 10 6 3 2 1 2 3 3
6 5 5 4 3 3 2 2 2 3 5 5 4 5 4 2 3 3 3 1 3 4 3 4 5 4 4 5 5 5 6 6 8 12 11 10 9 4 3 3 5 5 5 5 5 6 6 6 8 11 10 11 11 11 11 10 5 4 4 6 7 6 0 2 5 6 7 8 7 7 7 6 7 7 7 8 8 8 7 5 5 3 1 2 1
3 5 5 4 4 4 2 1 4 5 4 5 5 4 3 3 2 3 2 2 3 4 5 4 4 4 4 4 5 5 5 7 7 10 10 10 9 6 3 4 4 5 6 6 6 6 6 6 6 9 11 12 12 12 12 11 9 7 5 5 4 4 2 6 8 10 8 7 7 7 7 7 7 7 7 8 8 7 7 8 7 6 5 4 5
4 4 5 5 2 3 4 3 2 3 3 3 4 4 3 2 2 1 1 3 5 5 5 5 4 4 4 4 4 4 6 8 6 8 10 10 9 8 5 4 4 3 6 5 5 5 5 5 5 8 12 12 12 12 13 12 11 8 7 6 6 7 7 6 5 6 6 6 7 8 7 7 7 8 7 7 7 7 7 7 8 8 9 7 6
4 4 4 4 2 2 3 3 2 2 2 1 1 1 3 4 4 3 4 5 5 6 5 4 4 4 4 4 4 4 5 4 8 6 9 9 9 9 8 6 7 4 6 6 5 5 4 5 6 11 12 13 14 14 13 13 10 8 11 12 12 11 8 6 7 7 7 7 7 7 7 6 6 7 7 6 6 6 6 7 8 9 9 9 10
2 3 3 4 3 2 1 1 1 1 1 2 2 2 4 4 4 4 3 5 6 5 4 4 4 4 4 4 4 4 4 4 5 7 7 9 8 8 9 10 8 5 5 5 4 5 5 5 6 11 13 14 15 15 15 13 10 13 13 13 12 9 7 6 7 7 7 7 8 7 7 6 6 6 6 5 5 5 5 6 7 8 8 8 9
4 4 4 4 3 1 1 2 1 3 4 3 2 4 3 3 3 3 4 5 5 5 4 4 4 4 4 4 4 4 4 4 4 5 8 8 8 8 9 9 9 7 7 5 6 5 7 10 12 12 12 13 14 14 13 15 16 15 15 13 10 6 6 6 6 6 8 8 7 6 6 7 6 5 5 5 4 5 4 5 5 5 5 7 8
4 5 4 3 3 1 1 1 3 4 4 4 3 2 2 3 3 3 4 5 5 5 5 4 4 4 4 3 3 3 4 3 4 4 4 5 5 9 10 11 11 11 9 8 8 11 12 12 13 13 12 11 9 9 8 9 14 15 15 13 7 6 6 6 6 7 7 6 6 6 6 5 6 5 5 5 8 8 6 5 5 6 5 5 5
5 4 5 4 2 1 2 1 2 3 4 3 3 3 2 4 3 2 3 6 5 5 4 4 4 4 3 3 3 4 3 4 4 4 5 4 4 4 5 6 8 8 6 5 7 7 10 9 8 10 10 13 13 12 11 10 10 9 8 7 7 7 7 7 6 7 7 6 6 6 5 4 3 5 7 7 8 7 6 5 6 6 5 4 6
6 6 6 4 4 3 3 3 3 2 3 3 4 4 4 3 4 2 3 5 7 5 4 4 5 4 3 2 3 3 4 4 4 5 4 4 3 4 4 5 5 6 7 6 6 6 6 6 8 6 7 8 7 7 7 7 7 7 7 6 7 7 9 12 10 7 6 5 5 5 5 5 7 6 5 7 7 6 6 6 6 6 6 4 5
6 5 4 4 4 3 4 4 4 4 4 3 2 1 3 4 4 1 2 2 2 4 6 4 4 3 3 3 3 4 4 5 4 2 2 2 1 5 6 6 6 6 5 9 7 6 7 8 7 8 7 8 7 7 6 6 7 7 7 7 6 6 6 5 7 6 5 5 6 5 5 5 6 5 5 7 7 6 5 5 5 5 4 6 7
5 6 4 4 4 4 4 4 4 4 4 4 3 2 1 1 2 2 1 2 3 1 1 3 4 4 3 1 1 4 3 0 3 4 4 3 2 4 6 7 7 8 7 10 8 7 6 6 6 6 6 6 7 6 6 6 6 6 6 6 6 6 6 5 5 5 5 6 5 5 5 5 6 5 6 6 5 5 6 6 5 4 5 6 6
6 6 5 5 6 5 5 4 4 4 4 4 4 4 2 2 0 1 1 3 3 2 3 3 5 3 2 2 1 1 2 3 4 4 4 4 5 8 10 11 12 12 11 10 7 6 6 6 5 5 5 5 6 5 5 5 5 5 5 5 5 5 5 5 4 4 5 5 5 5 5 5 5 5 6 5 5 4 5 4 4 5 6 5 6
7 7 7 6 5 4 4 5 5 5 4 4 5 5 4 2 1 1 1 2 2 4 4 5 4 4 3 2 2 3 3 4 5 5 5 6 7 7 7 8 9 10 9 11 7 4 5 6 5 5 4 6 5 4 4 5 4 4 4 6 5 4 5 5 3 4 5 5 5 5 5 5 5 5 4 4 4 5 4 5 5 5 5 5 5
8 7 7 6 6 5 5 5 5 5 5 5 5 5 5 5 5 2 1 2 3 3 3 3 4 4 4 2 2 3 2 1 4 5 6 7 8 9 10 9 8 10 11 8 6 5 4 5 5 4 5 5 4 4 4 4 4 4 4 5 5 4 4 4 2 5 4 4 5 5 4 4 4 4 4 3 4 5 4 4 4 4 4 4 3
9 8 7 7 7 6 6 6 6 6 5 6 5 6 5 5 5 5 5 1 0 1 2 3 4 4 4 5 5 4 3 3 4 6 7 8 9 10 10 7 9 6 8 7 6 5 4 4 4 4 4 4 4 5 4 4 4 5 4 4 4 3 3 2 4 4 4 4 4 4 4 3 3 4 4 4 4 4 4 4 4 4 5 5 4
7 8 11 8 7 7 6 6 6 6 5 6 5 6 6 5 5 5 6 6 5 6 4 2 2 5 4 4 6 6 5 5 5 6 7 8 8 9 10 8 5 4 5 4 5 5 5 5 5 4 5 5 5 5 5 5 4 5 5 5 4 4 3 3 4 3 4 4 4 3 3 3 3 3 3 4 3 4 3 3 3 3 3 3 3
8 7 6 7 7 6 6 6 6 6 7 7 6 6 4 5 5 5 3 5 5 5 3 4 3 2 3 4 6 6 6 6 7 6 6 6 6 8 6 4 5 5 5 3 4 4 3 4 4 4 4 4 4 4 5 5 5 5 4 5 5 5 4 4 4 4 3 3 4 3 3 3 2 3 2 3 3 3 2 3 2 2 2 2 2
8 7 7 7 7 6 6 6 6 7 6 5 5 5 5 5 5 4 4 4 5 4 3 1 1 1 1 0 2 3 4 5 6 7 6 5 5 3 4 6 6 5 5 5 4 4 4 4 3 3 4 5 5 4 4 4 4 4 3 3 4 5 5 5 4 3 4 3 3 3 3 3 2 2 3 3 1 2 2 2 2 2 3 3 2
9 9 8 8 7 6 6 6 7 7 5 6 5 6 6 6 6 6 5 5 5 4 4 3 2 4 6 4 1 3 4 5 7 7 5 5 4 3 4 5 7 7 6 5 5 5 5 4 4 4 4 4 4 4 4 4 3 4 4 3 3 3 4 4 4 3 3 3 3 3 1 1 2 2 1 2 1 1 1 1 2 2 2 4 3
8 11 12 12 9 8 7 7 6 6 6 5 6 6 6 6 5 5 5 4 4 4 4 3 4 5 5 4 2 2 4 2 2 3 3 2 1 2 5 5 5 5 6 6 6 5 5 5 5 4 3 4 4 4 5 4 4 4 3 3 3 2 3 3 3 3 3 4 2 2 1 1 1 1 1 1 1 0 1 1 2 2 2 2 3
9 8 9 11 7 8 7 7 6 7 7 7 6 6 5 6 6 7 6 6 5 6 5 5 6 7 5 4 4 4 5 5 5 5 4 4 5 4 4 5 6 6 6 6 5 6 5 5 5 5 5 5 5 5 5 5 5 5 4 4 5 5 5 4 5 4 3 3 3 3 3 3 2 1 1 1 1 0 0 0 0 0 1 2 1
9 9 7 9 10 8 6 6 7 7 7 7 7 7 8 8 7 7 6 7 6 6 6 6 7 7 5 7 8 9 6 6 5 5 5 6 5 5 5 5 7 6 6 7 7 7 7 6 5 6 5 5 5 5 5 5 4 4 5 5 4 2 3 3 3 4 4 3 3 3 3 3 2 2 2 1 1 1 0 0 0 0 0 0 1
9 8 8 8 8 7 7 8 8 8 7 7 7 7 7 7 7 7 7 7 7 7 7 7 7 7 6 9 10 11 7 5 5 5 5 5 5 6 6 7 7 7 8 8 7 7 7 6 6 6 6 6 5 5 4 4 4 5 4 4 5 5 3 3 4 5 4 4 4 4 3 3 2 1 1 2 1 1 0 0 0 0 1 1 1
10 9 9 8 8 9 9 9 8 7 7 7 7 7 7 8 8 8 8 8 7 7 7 7 7 6 7 7 9 10 6 5 5 6 6 6 6 6 6 8 8 8 8 8 7 7 7 7 7 7 7 7 7 7 7 6 6 5 4 5 5 4 5 3 2 3 2 2 3 3 3 2 2 1 1 1 1 1 1 1 1 1 1 2 2
9 9 9 9 9 9 9 8 8 8 8 9 9 8 8 7 7 7 7 7 7 7 7 7 7 6 6 5 5 6 6 7 6 7 7 6 6 6 7 7 6 6 6 7 7 6 6 6 6 6 5 4 3 2 1 1 2 4 4 4 4 3 4 1 1 1 1 2 1 2 2 2 2 2 1 1 1 1 1 1 1 1 2 2 2
9 9 9 8 8 8 9 8 8 8 8 7 6 7 7 7 7 7 7 7 8 7 7 7 6 6 5 5 6 8 8 8 8 7 7 7 7 8 7 6 6 7 7 7 6 6 7 7 6 6 6 4 3 4 3 3 3 3 2 1 1 1 1 1 1 1 1 2 1 2 2 2 2 1 1 1 1 0 0 1 1 2 3 3 3
9 9 10 9 9 9 9 9 9 8 8 8 8 7 7 7 7 7 7 8 7 7 7 7 7 6 6 6 6 7 7 8 8 8 8 6 7 7 7 7 6 6 6 5 5 6 6 7 7 7 6 6 5 4 4 4 4 4 4 4 4 4 2 2 2 2 2 2 2 2 2 2 2 1 1 1 0 0 0 1 1 1 2 4 4
9 9 10 10 10 10 10 10 8 8 8 8 8 8 8 8 8 8 8 9 8 8 7 7 7 7 7 7 7 8 8 8 8 8 9 9 9 8 6 6 5 4 4 4 4 5 5 4 3 4 6 5 5 5 5 4 5 5 5 5 4 4 3 3 3 4 4 3 3 3 3 2 1 1 1 1 0 1 1 2 2 4 4 4 5
8 9 9 10 10 9 9 9 10 10 9 9 9 9 9 8 8 8 8 8 8 8 8 7 7 7 7 7 7 7 7 7 8 8 8 7 7 6 6 5 5 4 4 5 4 4 4 5 6 6 6 6 6 5 5 5 5 5 5 5 5 5 5 4 3 4 3 3 4 4 4 2 1 1 1 2 2 2 2 3 3 3 3 4 4
8 9 9 9 9 10 9 10 10 10 10 10 9 9 8 8 8 8 8 8 8 8 8 8 8 7 6 7 7 7 7 7 6 6 7 7 6 5 4 4 6 6 7 6 4 4 5 5 6 6 6 6 6 6 6 5 5 5 5 5 5 8 9 9 6 4 4 3 3 3 3 3 2 1 2 2 2 2 2 3 3 4 4 4 4
5 6 7 8 9 9 9 9 10 10 10 9 9 9 9 8 8 8 8 8 7 7 7 7 7 7 7 7 7 7 6 7 7 7 7 7 5 5 5 6 7 7 6 6 5 5 5 6 7 7 6 6 7 6 6 6 5 5 5 5 7 8 8 9 10 8 5 3 4 3 3 2 2 2 2 2 2 3 3 3 3 3 4 5 5
9 8 7 7 7 7 7 8 9 9 9 9 9 9 9 9 9 9 8 8 8 8 8 8 8 8 8 8 8 7 8 8 8 7 6 4 5 6 7 7 8 7 6 6 6 5 5 6 6 6 6 6 6 6 6 6 6 6 7 8 9 10 10 9 6 6 7 4 3 3 3 3 3 2 2 2 2 2 2 3 4 4 4 4 4
Wind_Direction
284 276 288 291 307 309 307 316 317 315 308 308 313 310 309 312 311 299 315 327 339 343 344 341 343 341 339 352 2 355 340 337 344 348 350 101 147 109 71 90 202 209 187 181 178 162 150 193 219 221 188 186 193 184 189 195 206 215 208 196 184 171 169 176 192 229 288 209 238 238 8 223 242 197 200 204 193 191 209 218 209 211 214 214 217
265 276 285 289 294 298 309 312 309 314 301 322 329 320 323 336 344 337 355 332 335 352 356 348 350 349 352 358 4 356 350 344 351 357 12 25 41 59 100 92 52 16 352 166 135 142 170 173 191 208 196 192 179 183 188 196 206 210 212 211 195 192 193 172 203 187 226 243 236 216 261 207 246 77 197 189 205 192 206 212 218 219 213 207 215
270 275 282 294 296 302 309 314 310 315 316 341 328 333 326 358 359 345 0 344 341 8 359 355 354 357 2 7 0 359 353 346 348 2 10 16 40 45 56 99 96 105 192 205 180 161 179 175 197 224 221 223 183 169 164 173 177 205 240 290 260 224 206 208 155 200 212 234 191 191 232 225 226 163 176 140 210 207 212 212 212 215 222 210 214
272 282 289 296 299 314 316 314 316 318 332 333 332 333 337 359 357 10 355 359 350 346 6 3 2 3 6 5 5 357 357 352 348 359 5 13 17 16 62 112 134 101 90 130 164 171 187 174 175 184 188 201 206 204 183 179 192 200 197 199 226 242 227 204 215 201 197 223 228 194 116 204 210 243 304 205 173 182 206 198 190 217 222 214 219
271 274 278 293 302 313 313 316 319 318 330 332 334 328 357 6 2 11 4 347 349 356 6 5 7 7 5 1 358 3 359 355 354 354 358 356 1 16 20 21 61 65 57 31 81 108 128 142 162 181 186 180 191 195 193 205 211 212 217 208 215 225 215 201 202 182 171 209 194 8 358 275 304 307 10 3 2 33 42 244 247 220 217 226 228
259 262 276 289 295 313 314 321 315 314 320 327 324 326 353 2 7 5 3 347 1 10 10 357 9 356 0 354 1 2 3 4 1 353 353 354 354 358 7 20 27 30 24 14 49 163 130 132 151 172 157 175 193 198 207 204 204 214 223 227 230 243 244 229 199 179 189 182 186 192 2 59 319 333 349 76 60 2 339 350 327 321 262 249 236
254 247 289 284 299 312 322 319 313 308 312 302 294 326 358 4 10 350 354 4 10 4 2 1 357 5 356 357 2 4 5 13 9 1 354 354 354 357 358 0 8 16 15 16 333 324 195 156 152 157 150 170 178 195 210 215 209 217 214 225 227 213 230 238 222 207 207 210 204 225 226 335 312 266 32 19 94 123 201 350 341 336 51 269 276
250 286 288 291 318 308 309 305 299 296 287 283 279 32 6 360 9 351 354 355 346 349 342 340 347 8 3 358 351 5 8 24 17 6 356 350 351 348 353 357 352 354 360 8 20 50 282 231 162 169 179 170 184 206 198 211 206 208 183 210 214 210 203 165 189 223 201 193 200 170 153 143 272 283 313 350 27 61 98 170 260 312 345 336 243
240 268 280 296 296 296 300 302 300 299 288 290 26 24 355 18 360 352 338 321 336 340 348 4 2 7 4 360 357 359 6 19 25 3 345 342 349 342 338 343 348 344 347 353 356 328 155 159 160 167 192 206 206 208 212 216 186 201 221 210 198 195 192 182 174 187 209 210 180 153 140 194 245 267 298 72 173 141 131 129 237 210 308 320 312
224 256 275 282 291 300 300 302 310 307 298 13 25 350 11 339 331 316 307 306 327 338 5 17 19 10 4 6 9 6 7 2 358 354 355 335 324 327 329 326 329 332 338 343 344 341 248 199 188 157 146 221 211 200 205 204 196 174 222 184 199 197 169 162 201 209 190 203 223 196 165 194 211 204 226 249 14 96 143 157 169 347 347 306 327
223 242 268 273 292 298 305 304 317 311 312 331 325 355 356 326 304 303 297 325 344 9 5 12 7 3 8 3 3 4 355 353 348 347 346 341 327 307 315 314 312 314 321 327 322 329 328 320 353 353 23 300 262 165 198 203 196 197 204 255 232 192 160 159 198 201 198 203 189 177 158 171 188 132 213 235 211 186 212 122 125 80 70 74 111
222 244 256 280 302 309 309 310 313 313 335 346 315 286 223 278 268 241 284 305 360 25 16 354 345 356 358 3 8 357 349 354 352 345 340 336 326 306 284 283 298 303 305 319 327 316 342 59 38 2 359 2 133 157 156 171 180 134 92 85 119 169 78 165 181 208 201 182 167 174 170 172 171 159 176 156 167 71 64 140 146 153 138 164 178
224 253 266 280 300 314 320 319 308 309 335 321 326 304 279 241 258 256 269 264 315 29 346 353 347 349 1 3 355 350 334 354 346 336 330 328 323 303 277 279 301 310 326 326 332 345 31 36 45 25 1 7 21 4 106 129 118 93 83 72 63 70 73 73 56 228 185 163 161 166 174 163 160 174 126 95 9 233 167 154 165 175 186 181 228
213 251 274 279 297 306 313 313 311 315 323 328 322 324 291 350 318 299 279 270 284 349 341 350 357 357 3 7 346 338 336 352 350 343 336 327 321 315 285 293 318 354 1 14 26 23 31 38 42 29 15 20 12 347 298 149 123 108 87 65 66 69 59 53 60 42 36 129 148 156 155 179 132 137 94 100 149 230 202 238 181 180 192 213 236
234 247 267 280 309 303 304 306 300 310 318 324 356 328 348 331 336 335 330 311 281 249 273 15 6 15 10 4 351 346 344 349 351 344 341 337 338 1 79 78 69 53 41 39 44 42 41 49 54 46 20 17 11 342 298 133 117 105 96 78 69 53 44 28 25 40 52 56 70 84 89 45 69 72 65 64 230 271 269 285 282 275 260 227 207
236 260 270 273 271 267 272 291 313 326 327 332 342 333 322 350 328 321 331 315 257 151 85 63 45 38 20 12 4 348 336 349 356 351 346 345 1 63 71 72 66 58 47 42 50 49 38 35 40 37 28 17 358 350 341 122 105 105 101 99 84 71 62 66 56 57 68 67 59 57 46 20 10 18 22 8 343 316 266 209 220 260 271 291 290
235 243 258 273 265 259 251 257 282 287 306 311 320 318 330 328 317 306 330 307 300 79 85 74 77 53 11 3 10 348 339 350 357 355 350 350 7 53 70 73 68 62 51 41 38 44 49 48 42 27 26 27 357 350 9 107 112 115 113 101 85 69 56 52 61 70 77 76 74 71 67 67 63 53 49 50 43 335 358 106 148 136 173 239 304
235 237 254 262 261 257 250 240 254 280 316 310 302 302 292 275 271 306 287 300 39 117 117 104 85 55 21 4 3 12 342 347 358 356 354 352 360 31 63 76 83 73 70 54 47 48 46 50 46 36 31 20 1 15 11 100 118 122 118 111 100 88 66 18 86 76 82 79 72 66 60 55 53 50 42 39 38 30 10 100 10 146 165 183 183
228 234 244 248 252 258 278 267 274 292 278 269 263 282 290 297 309 324 339 17 148 127 118 111 84 47 25 15 9 15 352 350 358 358 358 359 6 7 53 87 80 65 72 65 54 49 42 47 43 37 41 29 29 29 25 42 110 121 125 112 105 99 72 308 113 94 79 71 54 56 44 38 38 40 36 37 40 41 39 31 349 230 166 170 156
224 232 251 251 239 252 245 273 282 273 288 295 291 278 286 298 321 350 0 154 145 118 108 95 80 39 12 13 3 2 1 355 356 2 1 7 12 21 12 74 80 77 65 67 61 49 44 40 37 28 38 42 45 43 41 40 67 64 97 110 118 114 194 72 84 93 85 80 75 66 67 52 45 38 32 35 34 35 32 23 22 4 22 144 93
225 235 248 260 262 267 267 255 292 298 277 278 276 284 312 324 10 31 354 87 108 102 96 94 80 40 13 11 6 1 357 6 347 4 6 13 26 38 40 53 65 76 74 61 50 53 43 36 38 24 38 45 49 50 52 52 59 69 59 87 82 131 139 95 80 78 79 76 73 63 56 50 44 40 36 35 31 23 28 31 38 33 39 58 83
213 229 233 244 277 319 319 309 274 281 295 291 295 307 337 333 37 43 359 117 115 112 107 90 80 46 11 10 14 354 356 16 1 357 10 14 28 46 57 45 29 84 81 67 56 51 40 36 39 33 48 51 51 54 56 59 62 76 75 94 97 91 92 88 88 80 74 68 66 57 49 44 41 37 33 34 29 24 27 35 40 51 52 48 57
202 224 231 248 267 301 310 302 312 339 357 8 118 350 334 12 14 42 90 110 115 117 103 94 77 49 22 4 9 359 357 357 12 0 8 15 24 47 60 64 48 51 76 77 61 62 45 54 55 53 58 58 56 54 55 60 64 69 79 77 76 79 82 76 80 76 70 65 61 57 43 38 38 36 31 28 24 27 36 40 45 54 59 59 59
168 209 235 251 276 299 342 345 357 346 28 18 40 17 8 11 30 28 86 119 121 110 98 98 84 65 44 16 357 4 3 353 359 8 9 19 26 40 54 58 52 58 72 79 67 65 63 54 56 57 60 61 61 60 57 56 61 58 60 64 66 66 72 73 70 74 76 68 63 58 50 38 41 38 32 24 21 21 39 46 53 59 66 67 63
174 212 237 250 267 291 47 19 17 42 30 28 26 5 12 23 50 27 95 108 109 109 118 106 98 90 67 39 351 4 7 355 357 5 12 30 36 44 51 53 46 54 76 72 65 68 77 70 61 58 56 56 57 59 56 53 55 57 54 52 56 56 57 65 73 75 70 67 67 64 57 47 44 41 30 27 24 30 34 38 45 44 56 75 73
189 221 237 237 240 167 123 46 47 39 35 32 55 71 63 50 75 65 114 112 115 127 128 108 100 90 80 24 7 0 2 5 10 11 5 29 43 56 69 71 74 70 77 83 87 78 70 64 60 57 53 51 53 53 55 52 54 54 53 52 49 47 48 67 65 68 71 67 62 57 49 42 41 36 34 38 46 32 21 26 25 27 23 32 47
200 215 234 240 242 133 172 128 54 29 31 32 39 40 35 57 63 99 155 119 122 126 120 115 103 95 85 38 19 17 22 24 18 19 14 21 26 39 76 80 84 83 71 72 72 68 61 61 70 73 73 65 64 62 58 52 51 46 44 46 54 59 52 48 56 70 72 72 67 61 54 51 49 42 36 40 45 31 20 31 47 31 21 29 52
200 214 221 214 215 181 169 154 125 64 26 39 53 44 37 63 80 73 124 142 139 138 133 128 134 139 141 160 66 49 40 43 33 12 356 14 31 51 66 78 75 97 92 77 75 67 70 67 59 45 58 56 48 47 47 48 51 50 49 47 48 53 71 79 74 70 70 78 84 78 62 46 49 45 44 47 46 33 15 35 40 42 26 12 50
204 220 206 170 213 191 174 161 165 151 125 76 66 160 115 93 119 115 244 232 222 160 152 152 168 169 150 127 93 77 52 38 12 338 315 322 26 108 96 104 105 86 109 116 92 59 62 62 57 57 49 58 54 53 50 53 51 47 49 48 51 56 55 54 69 64 67 72 67 67 66 62 59 43 51 56 41 35 7 44 37 50 38 52 66
198 221 201 191 202 166 155 157 162 155 148 138 102 56 16 185 209 150 194 255 211 257 117 165 178 153 147 184 141 102 97 331 325 17 21 48 83 96 110 112 114 113 103 94 95 77 62 67 51 57 56 62 68 62 58 62 67 59 49 50 55 60 63 65 68 75 68 71 75 73 66 68 67 53 55 61 52 43 29 36 43 24 52 46 54
197 211 197 209 204 188 166 160 170 152 163 146 130 117 70 14 80 221 120 159 173 160 126 125 125 136 115 119 227 308 11 23 30 29 62 90 106 114 116 118 120 128 124 95 57 81 88 78 76 66 72 77 82 81 76 80 78 83 69 62 56 67 70 70 69 77 75 81 71 70 66 64 68 54 61 54 55 45 42 32 41 38 48 41 47
192 204 201 207 201 188 174 164 160 160 167 156 143 136 125 112 25 355 180 186 151 149 151 154 150 131 141 167 115 41 43 30 34 52 76 96 105 109 103 103 105 95 91 97 91 90 102 113 109 106 109 90 91 90 85 88 84 91 101 80 69 58 72 78 67 83 89 82 80 69 68 66 68 63 62 59 59 57 44 39 36 38 38 44 44
193 198 200 201 194 181 166 169 175 172 174 168 165 150 147 153 161 205 321 326 225 222 209 176 151 166 159 165 125 128 134 51 51 73 87 104 111 108 102 97 105 110 83 72 111 110 113 120 127 135 120 114 118 112 107 96 98 91 89 97 95 82 78 81 86 83 81 84 88 83 79 80 80 81 68 59 54 60 45 44 37 44 35 37 34
194 189 194 198 184 184 186 185 180 194 190 183 176 171 177 174 183 167 172 193 68 323 294 237 209 174 184 178 159 156 150 107 87 83 96 113 122 119 107 88 65 53 113 132 123 138 136 123 129 137 130 122 129 125 121 116 109 109 98 94 103 109 100 104 91 87 90 88 83 84 79 76 67 80 73 65 60 61 55 43 33 34 35 31 22
193 200 198 186 183 190 191 186 192 182 176 185 182 179 183 184 164 165 166 176 185 181 191 214 216 186 173 155 157 151 137 124 103 90 95 115 124 123 109 98 91 71 57 66 120 134 144 149 154 161 154 149 161 147 138 148 137 129 129 129 126 119 120 107 98 96 99 100 95 85 83 94 80 74 86 82 69 57 53 49 46 42 42 30 18
192 196 198 194 190 190 184 193 183 179 185 194 194 184 166 159 171 186 174 160 169 192 233 231 214 258 199 191 185 167 157 131 119 106 99 104 129 128 105 109 113 118 120 135 152 158 159 165 157 167 166 158 155 161 159 159 171 155 151 142 146 146 132 124 127 111 96 91 99 116 105 88 90 101 101 82 79 74 62 53 51 45 44 46 23
190 196 196 194 194 189 190 184 185 192 193 181 168 168 168 161 156 153 163 173 186 204 202 253 326 173 131 12 188 174 158 126 112 116 103 100 104 111 142 153 148 143 155 165 170 170 176 197 184 162 167 166 177 175 170 173 166 155 157 160 143 145 152 147 148 145 135 125 130 127 119 111 120 105 90 88 71 69 52 40 46 49 43 27 5
189 194 198 194 187 186 174 184 194 188 185 173 178 179 184 183 184 178 177 195 196 191 206 225 189 185 196 211 122 137 126 117 110 79 71 81 84 118 139 152 149 155 174 187 186 181 192 187 179 189 186 175 174 177 180 181 166 170 167 166 167 159 143 142 147 148 145 141 144 148 144 145 144 126 93 81 73 67 53 37 21 11 12 20 14
194 201 197 186 184 183 185 182 175 173 183 176 177 175 190 195 197 196 201 194 199 209 217 200 206 209 222 206 219 150 122 123 172 207 184 131 120 131 156 157 172 176 173 182 186 194 200 198 196 195 188 187 184 182 183 184 172 175 171 161 167 156 158 168 173 175 174 176 170 166 165 166 158 144 137 117 105 74 60 54 22 18 2 347 348
191 196 201 191 188 189 180 185 176 178 181 176 183 188 183 190 200 204 204 194 209 216 206 211 224 230 207 159 185 148 165 198 197 207 187 181 183 179 169 173 185 187 184 188 197 198 199 210 190 185 195 194 195 192 196 182 184 173 163 182 174 186 192 182 182 180 195 190 185 180 185 185 182 151 161 167 141 143 125 29 68 327 321 310 313
193 195 188 189 193 181 180 172 181 192 184 187 183 180 195 198 200 201 199 202 208 212 213 218 225 237 201 201 180 176 187 199 200 201 201 194 183 183 192 197 187 196 203 196 196 193 198 199 195 197 195 198 193 198 191 190 171 166 183 183 194 206 194 192 192 198 194 191 198 189 198 184 165 165 169 167 145 142 133 165 185 202 248 243 285
189 188 187 192 185 181 179 189 195 194 189 185 181 190 196 199 195 191 196 201 206 207 213 224 234 237 231 196 187 187 190 214 189 197 208 206 193 196 200 199 202 197 189 198 197 196 199 203 200 194 200 201 192 198 173 189 183 185 187 190 203 206 210 209 200 194 191 196 200 202 190 184 167 176 102 121 144 153 142 93 36 353 340 330 326
188 189 192 182 180 187 191 197 186 182 189 192 201 200 197 191 192 193 195 201 202 201 207 219 236 233 238 228 198 186 203 210 205 204 207 206 204 204 204 204 202 202 202 202 198 195 194 192 192 194 197 196 191 188 186 188 178 182 188 198 204 214 226 225 205 206 198 199 207 202 195 166 154 143 147 124 105 100 75 26 6 352 334 321 315
186 189 188 185 191 194 198 187 186 194 195 198 194 191 191 195 198 195 195 198 203 204 208 217 225 222 229 207 176 180 203 206 210 212 211 207 208 211 210 209 208 207 210 205 200 198 189 195 200 199 198 190 168 144 130 135 171 194 193 209 218 221 227 253 242 232 201 210 194 175 164 145 129 128 108 96 85 63 38 25 354 335 329 313 312
186 186 186 188 191 193 198 196 194 195 197 192 197 199 191 191 195 200 199 202 205 204 211 217 219 217 218 199 190 194 205 206 212 213 213 206 212 216 211 208 205 208 207 214 203 188 193 197 198 190 183 158 119 108 96 79 70 70 66 153 166 130 84 51 346 242 179 167 151 139 140 136 120 101 92 91 88 71 16 332 327 325 312 306 308
192 188 188 190 191 195 195 195 194 190 188 193 196 199 196 194 198 198 202 207 205 203 209 213 215 213 213 205 203 209 212 212 210 210 215 217 214 216 214 206 203 203 206 204 185 192 188 192 191 187 159 121 105 91 81 72 64 57 51 52 65 78 74 63 58 80 90 104 107 109 104 87 79 81 89 84 92 25 337 320 303 287 286 293 296
195 195 191 191 193 195 197 193 185 191 193 196 197 200 197 198 198 200 205 208 208 208 209 209 206 213 213 211 203 210 212 209 211 205 209 215 215 217 211 202 192 176 171 163 160 169 171 172 127 106 95 100 96 90 82 74 70 65 59 54 56 56 55 54 59 66 77 87 105 105 91 95 93 93 83 64 20 9 344 312 315 310 310 307 304
196 198 199 196 194 193 197 190 195 193 194 195 198 200 200 197 195 200 203 204 207 210 211 211 210 213 209 218 216 217 214 213 212 211 207 208 216 214 201 185 163 139 113 96 77 67 72 80 88 92 95 92 89 82 77 74 71 71 69 60 49 46 48 47 64 55 52 61 69 79 90 88 84 65 36 16 360 353 329 319 325 316 311 308 304
202 199 200 198 196 195 193 194 195 193 197 197 198 200 201 199 201 200 200 202 203 204 203 206 210 208 211 216 215 218 216 214 219 212 208 209 206 197 163 131 127 124 118 102 102 97 95 95 94 97 98 94 89 90 86 81 78 72 69 67 56 55 58 53 56 46 55 66 66 73 74 83 69 58 42 24 11 348 336 323 322 318 312 307 305
224 220 212 204 202 203 198 197 197 199 199 197 197 200 200 201 203 206 206 205 206 206 209 208 208 207 206 211 213 216 210 213 219 220 215 206 179 144 139 137 131 125 117 116 112 111 105 101 99 97 93 93 90 89 89 86 81 78 75 69 60 55 55 55 53 38 34 49 53 53 55 57 59 50 46 29 11 358 346 333 323 315 312 308 307
207 207 209 207 212 214 206 201 202 203 202 199 200 201 199 200 206 207 207 208 209 212 210 208 209 207 208 210 208 208 209 213 215 218 211 173 148 142 143 142 138 125 117 117 114 110 106 103 96 95 92 93 90 88 84 84 80 81 83 77 65 58 53 47 43 29 30 34 55 51 53 46 37 38 29 24 7 3 341 330 325 322 314 310 306